Volver al catálogo

FLOCK 4BE 6

ActivoCienciaSSO
NORAD 60516·PAYLOAD·🇺🇸 United States

Lanzado Aug 16, 2024 desde Vandenberg Space Force Base

Loading…

Próximos Pases (próximas 24 horas)

TLE

ActualizadoSource: CelesTrak SupGP

Época: Sep 14, 2026, 18:45 UTC

1 60516C 24149AV  26257.78145833  .00031046  00000+0  72491-3 0  2575
2 60516  97.3739 342.2386 0002616 349.0345 223.2317 15.42209140    18

Sigue FLOCK 4BE 6 en tiempo real con AllMySat

Download on the App Store